Regional Weather Roundup
Issued by NWS Burlington, VT

Home | Current Version | Previous Version | Text Only | Print | Product List | Glossary On
Versions: 1 2 3 4 5 6 7 8 9 10 11 12 13 14 15 16 17 18 19 20 21 22 23 24 25 26 27 28 29 30 31 32 33 34 35 36 37 38 39 40 41 42 43 44 45 46 47 48 49 50
000
ASUS41 KBTV 230730
RWRBTV
VERMONT REGIONAL WEATHER ROUNDUP
NATIONAL WEATHER SERVICE BURLINGTON VT
300 AM EDT WED MAY 23 2018

NOTE: "FAIR" INDICATES FEW OR NO CLOUDS BELOW 12,000 FEET WITH NO
SIGNIFICANT WEATHER AND/OR OBSTRUCTIONS TO VISIBILITY.

* THESE REPORTS ARE NOT UNDER NWS QUALITY CONTROL AND/OR DO NOT
  REPORT WEATHER SUCH AS PRECIPITATION AND FOG.

VTZ001>019-230800-
_____VERMONT_____


CITY           SKY/WX    TMP DP  RH WIND       PRES   REMARKS
BURLINGTON     CLOUDY    57  54  89 CALM      29.88R
MONTPELIER     LGT RAIN  53  53 100 CALM      29.89S FOG
MORRISVILLE    CLOUDY    54  54 100 NE3       29.87R
ST. JOHNSBURY*   N/A     54  53  97 MISG      29.84F
LYNDONVILLE*   CLOUDY    52  51  97 CALM      29.88R FOG
MIDDLEBURY*    CLOUDY    55  54  97 CALM      29.87S FOG
RUTLAND*       CLOUDY    55  54  94 N7        29.87S
SPRINGFIELD    CLOUDY    53  53 100 CALM      29.87F
HIGHGATE*      CLOUDY    55  55 100 CALM      29.87S
NEWPORT*       MOCLDY    53  53 100 CALM      29.87S FOG
BENNINGTON     CLOUDY    57  54  89 CALM      29.88S
ISLAND POND*     N/A     52 N/A N/A CALM        N/A
GALLUP MILLS*    N/A     52 N/A N/A MISG        N/A
UNION VILLAGE*   N/A     54 N/A N/A MISG        N/A
MT. MANSFIELD*   N/A     48 N/A N/A NW29        N/A

_____LAKE CHAMPLAIN_____


CITY           SKY/WX    TMP DP  RH WIND       PRES   REMARKS
BURTON ISLAND*   N/A     54  54 100 N1          N/A
COLCHESTER RF*   N/A     52  50  93 S1          N/A
DIAMOND ISL*     N/A     55  55 100 SW2         N/A

$$

NYZ007-026>031-035-052-083-087-230800-
_____NORTHERN NEW YORK_____


CITY           SKY/WX    TMP DP  RH WIND       PRES   REMARKS
PLATTSBURGH    CLOUDY    54  53  97 NE5       29.88R FOG
SARANAC LAKE   CLOUDY    53  53 100 CALM      29.88S
MASSENA        CLOUDY    56  56 100 SW7       29.90S FOG
OGDENSBURG*    FAIR      55  54  97 S3        29.90S
POTSDAM*       FOG       55  55 100 W5        29.90S VSB 3/4
STARK FALLS*     N/A     54 N/A N/A NW2         N/A
WATERTOWN      CLOUDY    52  52 100 CALM      29.93R FOG
FT DRUM        CLOUDY    54  54 100 CALM      29.92R FOG
ALBANY         CLOUDY    58  53  84 S8        29.89F
GLENS FALLS    CLOUDY    55  54  96 S8        29.87F

$$
NHZ002-005-011-230800-
_____NEW HAMPSHIRE_____


CITY           SKY/WX    TMP DP  RH WIND       PRES   REMARKS
LEBANON        LGT RAIN  55  51  86 CALM      29.86S
KEENE          CLOUDY    55  53  93 S6        29.87F
MT WASHINGTON  LGT RAIN  37  37 100 NW36        N/A  VSB 0   WCI  24
PLYMOUTH       LGT RAIN  53  52  95 CALM      29.86S
WHITEFIELD     CLOUDY    54  53  97 CALM      29.86S FOG

$$

_____REGIONAL QUEBEC LOCATIONS_____


CITY           SKY/WX    TMP DP  RH WIND       PRES   REMARKS
MONTREAL       PTCLDY    52  52 100 SW5       29.86F
QUEBEC CITY    MOCLDY    55  52  88 SW8       29.80F
SHERBROOKE     CLOUDY    54  52  94 S3        29.84F

_____REGIONAL ONTARIO LOCATIONS_____


CITY           SKY/WX    TMP DP  RH WIND       PRES   REMARKS
OTTAWA         FOG       52  50  93 SW6       29.88F VSB 1/4

______KEY______
VSB  - VISIBILITY IN MILES
WCI  - WIND CHILL INDEX
HX   - HEAT INDEX
$$
NNNN



USA.gov is the U.S. government's official web portal to all federal, state and local government web resources and services.